GW3820 Weather Reports


time (UTC)temp
C
wind
direction
speed
KPH
gust
KPH
rain 1hr
cm
rain 24hr
cm
rain mn
cm
humidity
%
barometer
mb
20260510213816 16 289 6.4 11.3 0.00 0.00 0.00 32 1018.0
20260510212817 16 336 6.4 11.3 0.00 0.00 0.00 31 1017.9
20260510211816 16 253 4.8 16.1 0.00 0.00 0.00 30 1017.9
20260510210816 18 8 6.4 14.5 0.00 0.00 0.00 30 1017.6
20260510205816 16 281 4.8 14.5 0.00 0.00 0.00 33 1017.7
20260510204816 16 272 3.2 6.4 0.00 0.00 0.00 31 1017.7
20260510203816 16 280 9.7 16.1 0.00 0.00 0.00 30 1017.8
20260510202816 16 258 9.7 12.9 0.00 0.00 0.00 30 1017.7
20260510201816 16 320 8.0 17.7 0.00 0.03 0.00 30 1017.8
20260510200816 17 337 8.0 16.1 0.00 0.08 0.00 31 1017.8
20260510195816 15 46 1.6 3.2 0.00 0.08 0.00 32 1017.9
20260510194817 16 312 3.2 11.3 0.00 0.08 0.00 32 1017.9
20260510193816 16 295 9.7 19.3 0.00 0.08 0.00 30 1018.0
20260510192836 17 332 8.0 20.9 0.00 0.08 0.00 31 1018.1
20260510191816 17 332 16.1 20.9 0.00 0.08 0.00 31 1018.0
20260510190816 17 326 14.5 22.5 0.00 0.08 0.00 30 1018.1
20260510185816 17 336 14.5 19.3 0.00 0.08 0.00 31 1018.1
20260510184816 16 300 8.0 14.5 0.00 0.08 0.00 30 1018.1
20260510183816 17 285 6.4 16.1 0.00 0.08 0.00 31 1018.0
20260510182816 16 13 12.9 20.9 0.00 0.08 0.00 32 1017.9
20260510181816 16 258 9.7 27.4 0.00 0.08 0.00 31 1017.8
20260510180837 16 32 11.3 16.1 0.00 0.08 0.00 33 1017.6
20260510175817 17 9 11.3 17.7 0.00 0.08 0.00 33 1017.6
20260510174816 16 340 9.7 25.7 0.00 0.08 0.00 32 1017.6
20260510173816 16 235 4.8 19.3 0.00 0.08 0.00 31 1017.7
20260510172816 15 285 4.8 16.1 0.00 0.08 0.00 29 1017.6
20260510171816 16 305 3.2 17.7 0.00 0.08 0.00 32 1017.6
20260510170816 16 288 6.4 16.1 0.00 0.08 0.00 33 1017.7
20260510165857 15 320 4.8 17.7 0.00 0.08 0.00 35 1017.9
20260510164816 15 321 8.0 14.5 0.00 0.08 0.00 33 1017.9
20260510163837 15 275 11.3 17.7 0.00 0.08 0.00 32 1017.9
20260510162816 15 355 8.0 20.9 0.00 0.08 0.00 32 1017.9
20260510161816 15 29 12.9 19.3 0.00 0.08 0.00 33 1017.9
20260510160837 15 296 6.4 12.9 0.00 0.08 0.00 33 1017.9
20260510155817 15 288 6.4 11.3 0.00 0.08 0.00 33 1017.8
20260510154817 15 345 9.7 17.7 0.00 0.08 0.00 35 1017.7
20260510153817 14 80 3.2 8.0 0.00 0.08 0.00 37 1017.6
20260510152817 14 316 4.8 9.7 0.00 0.08 0.00 35 1017.5
20260510151817 14 322 6.4 20.9 0.00 0.08 0.00 35 1017.6
20260510150816 13 260 8.0 11.3 0.00 0.08 0.00 38 1017.3
20260510145837 14 348 11.3 17.7 0.00 0.08 0.00 37 1017.3
20260510144817 13 263 6.4 9.7 0.00 0.08 0.00 38 1017.1
20260510143816 13 310 11.3 19.3 0.00 0.08 0.00 36 1017.1
20260510142817 13 261 9.7 19.3 0.00 0.08 0.00 38 1017.1
20260510141816 13 259 4.8 11.3 0.00 0.08 0.00 40 1017.0
20260510140817 13 277 9.7 11.3 0.00 0.08 0.00 38 1016.9
20260510135816 12 10 3.2 4.8 0.00 0.08 0.00 41 1016.9
20260510134817 12 291 3.2 4.8 0.00 0.08 0.00 44 1016.9
20260510133917 12 22 4.8 8.0 0.00 0.08 0.00 44 1017.0
20260510132816 11 228 4.8 8.0 0.00 0.08 0.00 46 1017.0
20260510131816 11 256 1.6 4.8 0.00 0.08 0.00 46 1017.0
20260510130837 11 42 3.2 6.4 0.00 0.08 0.00 47 1016.9
20260510125817 10 358 4.8 6.4 0.00 0.08 0.00 50 1016.8
20260510124816 10 75 3.2 4.8 0.00 0.08 0.00 52 1016.6
20260510123816 9 296 3.2 6.4 0.00 0.08 0.00 54 1016.4
20260510122816 9 358 1.6 4.8 0.00 0.08 0.00 55 1016.3
20260510121817 9 358 6.4 11.3 0.00 0.08 0.00 57 1016.2
20260510120817 8 5 3.2 6.4 0.00 0.08 0.00 59 1016.2
20260510115816 7 345 1.6 4.8 0.00 0.08 0.00 63 1016.2
20260510114817 6 342 1.6 6.4 0.00 0.08 0.00 68 1016.0
20260510113817 6 285 0.0 1.6 0.00 0.08 0.00 73 1015.9
20260510112816 5 283 1.6 1.6 0.00 0.08 0.00 73 1015.6
20260510111816 4 0.0 0.0 0.00 0.08 0.00 74 1015.4
20260510110817 3 0.0 0.0 0.00 0.08 0.00 73 1015.2
20260510105816 3 0.0 0.0 0.00 0.08 0.00 72 1015.1
20260510104817 4 0.0 0.0 0.00 0.08 0.00 70 1014.8
20260510103817 5 0.0 0.0 0.00 0.08 0.00 68 1014.6
20260510102816 5 0.0 0.0 0.00 0.08 0.00 67 1014.5
20260510101817 5 0.0 0.0 0.00 0.08 0.00 65 1014.4
20260510100816 6 338 3.2 4.8 0.00 0.08 0.00 65 1014.3
20260510095816 6 317 0.0 4.8 0.00 0.08 0.00 64 1014.3
20260510094817 6 330 1.6 4.8 0.00 0.08 0.00 64 1014.3
20260510093816 6 14 3.2 4.8 0.00 0.08 0.00 64 1014.1
20260510092817 6 342 1.6 4.8 0.00 0.08 0.00 64 1014.0
20260510091817 7 346 1.6 6.4 0.00 0.08 0.00 64 1013.9
20260510090817 7 347 1.6 4.8 0.00 0.08 0.00 65 1013.8
20260510085816 6 327 4.8 6.4 0.00 0.08 0.00 66 1013.6
20260510084817 6 287 1.6 6.4 0.00 0.08 0.00 68 1013.3
20260510083837 6 333 3.2 8.0 0.00 0.08 0.00 71 1013.0
20260510082817 6 316 1.6 4.8 0.00 0.08 0.00 71 1012.8
20260510081817 6 0.0 0.0 0.00 0.08 0.00 71 1012.4
20260510080817 6 337 3.2 8.0 0.00 0.08 0.00 72 1012.3
20260510075817 6 5 0.0 1.6 0.00 0.08 0.00 73 1012.0
20260510074816 7 0.0 0.0 0.00 0.08 0.00 72 1011.6
20260510073816 7 0.0 0.0 0.00 0.08 0.00 71 1011.4
20260510072817 7 0.0 0.0 0.00 0.08 0.00 70 1011.1
20260510071816 8 0.0 0.0 0.00 0.08 0.00 69 1011.0
20260510070816 8 320 0.0 1.6 0.00 0.08 0.00 69 1010.9
20260510065835 8 13 0.0 1.6 0.00 0.08 0.00 67 1010.7
20260510064817 8 327 1.6 3.2 0.00 0.08 0.00 69 1010.6
20260510063816 8 324 1.6 3.2 0.00 0.08 0.00 69 1010.5
20260510062817 8 324 1.6 3.2 0.00 0.08 0.00 69 1010.4
20260510061857 8 311 0.0 3.2 0.00 0.08 0.00 68 1010.4
20260510060837 8 0.0 0.0 0.00 0.08 0.00 67 1010.2
20260510055817 8 310 1.6 1.6 0.00 0.08 0.00 66 1010.1
20260510054817 9 310 1.6 3.2 0.00 0.08 0.00 66 1010.0
20260510053815 10 0.0 0.0 0.00 0.08 0.00 65 1010.0
20260510052817 10 0.0 0.0 0.00 0.08 0.00 64 1010.0
20260510051817 10 0.0 0.0 0.00 0.08 0.00 61 1009.9
20260510050817 11 0.0 1.6 0.00 0.08 0.00 59 1009.8
20260510045817 11 329 0.0 3.2 0.00 0.08 0.00 57 1009.7
20260510044837 12 322 1.6 4.8 0.00 0.08 0.00 55 1009.5
20260510043817 12 12 0.0 1.6 0.00 0.08 0.00 53 1009.2
20260510042816 13 1 1.6 4.8 0.00 0.08 0.00 52 1009.1
20260510041835 13 15 4.8 8.0 0.00 0.08 0.00 51 1008.8
20260510040817 14 351 4.8 8.0 0.00 0.08 0.00 50 1008.8
20260510035817 14 357 4.8 9.7 0.00 0.08 0.08 49 1008.7
20260510034817 15 340 3.2 9.7 0.00 0.08 0.08 48 1008.6
20260510033816 15 16 6.4 11.3 0.00 0.08 0.08 48 1008.4
20260510032837 15 349 6.4 14.5 0.00 0.08 0.08 47 1008.2
20260510031817 15 356 4.8 6.4 0.00 0.08 0.08 47 1008.0
20260510030857 15 14 12.9 17.7 0.00 0.08 0.08 48 1007.9
20260510025816 16 2 8.0 16.1 0.00 0.08 0.08 49 1007.7
20260510024817 15 15 9.7 20.9 0.00 0.08 0.08 52 1007.4
20260510023857 15 4 1.6 8.0 0.00 0.08 0.08 56 1007.2
20260510022817 15 359 1.6 4.8 0.00 0.08 0.08 57 1006.8
20260510021837 15 352 1.6 4.8 0.00 0.08 0.08 58 1006.4
20260510020817 13 317 11.3 19.3 0.00 0.08 0.08 62 1006.2
20260510015817 13 0.0 0.0 0.00 0.08 0.08 64 1005.7
20260510014817 13 309 1.6 3.2 0.00 0.08 0.08 62 1005.3
20260510013816 13 0.0 0.0 0.00 0.08 0.08 60 1005.0
20260510012817 14 0.0 1.6 0.00 0.08 0.08 59 1004.8
20260510011837 15 221 0.0 1.6 0.00 0.08 0.08 56 1004.7
20260510010817 15 0.0 0.0 0.00 0.08 0.08 58 1004.5
20260510005817 16 221 0.0 1.6 0.00 0.08 0.08 52 1004.4
20260510004815 17 221 1.6 1.6 0.00 0.08 0.08 52 1004.3
20260510003817 18 274 3.2 6.4 0.00 0.08 0.08 46 1004.3
20260510002817 18 242 0.0 3.2 0.00 0.08 0.08 47 1004.1
20260510001815 18 253 1.6 3.2 0.00 0.08 0.08 43 1004.0
20260510000817 19 258 1.6 3.2 0.00 0.08 0.08 41 1003.9
20260509235817 20 244 4.8 6.4 0.00 0.08 0.08 40 1003.9
20260509234817 20 278 9.7 19.3 0.00 0.08 0.08 39 1003.7
20260509233837 20 286 11.3 22.5 0.00 0.08 0.08 37 1003.7
20260509232835 21 335 6.4 9.7 0.00 0.08 0.08 36 1003.6
20260509231817 21 233 11.3 29.0 0.00 0.08 0.08 35 1003.5
20260509230817 21 196 8.0 20.9 0.00 0.08 0.08 36 1003.5
20260509225816 21 299 8.0 17.7 0.00 0.08 0.08 34 1003.5
20260509224817 21 245 8.0 19.3 0.00 0.08 0.08 34 1003.3
20260509223817 21 249 8.0 24.1 0.00 0.08 0.08 34 1003.2
20260509222817 21 256 8.0 30.6 0.00 0.08 0.08 35 1003.1
20260509221817 22 262 19.3 27.4 0.00 0.08 0.08 36 1003.0
20260509220817 21 262 9.7 27.4 0.00 0.08 0.08 41 1002.7
20260509215817 20 219 4.8 6.4 0.00 0.08 0.08 53 1002.7
20260509214817 21 226 12.9 24.1 0.00 0.08 0.08 54 1002.6